Time,TemperatureF,DewpointF,PressureIn,WindDirection,WindDirectionDegrees,WindSpeedMPH,WindSpeedGustMPH,Humidity,HourlyPrecipIn,Conditions,Clouds,dailyrainin,SoftwareType,DateUTC
2013-07-06 00:00:00,72.5,68.7,30.04,NW,315,0.5,1.1,88,0.00,CLR,,0.00,WeatherDisplay:10.37,2013-07-06 04:00:00,
2013-07-06 00:01:00,72.5,68.7,30.04,WSW,248,0.5,2.3,88,0.00,CLR,,0.00,WeatherDisplay:10.37,2013-07-06 04:01:00,
2013-07-06 00:02:00,72.5,68.7,30.04,WSW,248,2.4,3.5,88,0.00,CLR,,0.00,WeatherDisplay:10.37,2013-07-06 04:02:00,
2013-07-06 00:07:00,72.5,68.7,30.04,SSW,202,0.5,2.3,88,0.00,CLR,,0.00,WeatherDisplay:10.37,2013-07-06 04:07:00,
2013-07-06 00:12:00,72.5,68.7,30.04,SSW,202,1.6,2.3,88,0.00,CLR,,0.00,WeatherDisplay:10.37,2013-07-06 04:12:00,
2013-07-06 00:17:00,72.5,68.7,30.04,SSW,202,2.2,2.3,88,0.00,CLR,,0.00,WeatherDisplay:10.37,2013-07-06 04:17:00,
2013-07-06 00:22:00,72.3,68.6,30.04,West,270,0.7,1.1,88,0.00,CLR,,0.00,WeatherDisplay:10.37,2013-07-06 04:22:00,
2013-07-06 00:27:00,72.3,68.6,30.04,SSW,202,3.1,3.5,88,0.00,CLR,,0.00,WeatherDisplay:10.37,2013-07-06 04:27:00,
2013-07-06 00:32:00,72.3,68.6,30.04,SW,225,1.1,1.1,88,0.00,CLR,,0.00,WeatherDisplay:10.37,2013-07-06 04:32:00,
2013-07-06 00:37:00,72.3,68.6,30.04,SW,225,0.5,1.1,88,0.00,CLR,,0.00,WeatherDisplay:10.37,2013-07-06 04:37:00,
2013-07-06 00:42:00,72.3,68.6,30.04,SW,225,0.7,1.1,88,0.00,CLR,,0.00,WeatherDisplay:10.37,2013-07-06 04:42:00,
2013-07-06 00:47:00,72.1,68.4,30.04,SSW,202,3.3,3.5,88,0.00,CLR,,0.00,WeatherDisplay:10.37,2013-07-06 04:47:00,
2013-07-06 00:52:00,72.1,68.4,30.04,SSW,202,1.4,1.4,88,0.00,CLR,,0.00,WeatherDisplay:10.37,2013-07-06 04:52:00,
2013-07-06 00:57:00,72.1,68.4,30.04,SW,225,0.5,1.1,88,0.00,CLR,,0.00,WeatherDisplay:10.37,2013-07-06 04:57:00,
2013-07-06 01:02:00,72.0,68.2,30.04,WNW,292,0.5,0.5,88,0.00,CLR,,0.00,WeatherDisplay:10.37,2013-07-06 05:02:00,
2013-07-06 01:07:00,72.0,68.2,30.04,WSW,248,0.9,2.3,88,0.00,CLR,,0.00,WeatherDisplay:10.37,2013-07-06 05:07:00,
2013-07-06 01:12:00,72.0,68.2,30.04,SW,225,0.0,2.3,88,0.00,CLR,,0.00,WeatherDisplay:10.37,2013-07-06 05:12:00,
2013-07-06 01:17:00,71.8,68.0,30.04,SW,225,1.1,2.3,88,0.00,CLR,,0.00,WeatherDisplay:10.37,2013-07-06 05:17:00,
2013-07-06 01:22:00,71.8,68.0,30.04,SW,225,1.6,2.3,88,0.00,CLR,,0.00,WeatherDisplay:10.37,2013-07-06 05:22:00,
2013-07-06 01:27:00,71.8,68.0,30.04,SW,225,0.5,2.3,88,0.00,CLR,,0.00,WeatherDisplay:10.37,2013-07-06 05:27:00,
2013-07-06 01:32:00,71.6,67.9,30.04,West,270,0.7,2.3,88,0.00,CLR,,0.00,WeatherDisplay:10.37,2013-07-06 05:32:00,
2013-07-06 01:37:00,71.6,67.9,30.03,SSW,202,1.1,1.1,88,0.00,CLR,,0.00,WeatherDisplay:10.37,2013-07-06 05:37:00,
2013-07-06 01:42:00,71.6,67.9,30.03,SSW,202,1.4,1.4,88,0.00,CLR,,0.00,WeatherDisplay:10.37,2013-07-06 05:42:00,
2013-07-06 01:47:00,71.6,67.9,30.03,SW,225,1.4,1.4,88,0.00,CLR,,0.00,WeatherDisplay:10.37,2013-07-06 05:47:00,
2013-07-06 01:52:00,71.6,67.9,30.03,SW,225,1.1,1.1,88,0.00,CLR,,0.00,WeatherDisplay:10.37,2013-07-06 05:52:00,
2013-07-06 01:57:00,71.6,67.9,30.04,South,180,0.9,1.1,88,0.00,CLR,,0.00,WeatherDisplay:10.37,2013-07-06 05:57:00,
2013-07-06 02:02:00,71.6,67.9,30.04,SW,225,0.5,1.1,88,0.00,CLR,,0.00,WeatherDisplay:10.37,2013-07-06 06:02:00,
2013-07-06 02:07:00,71.4,67.7,30.04,SW,225,0.5,1.1,88,0.00,CLR,,0.00,WeatherDisplay:10.37,2013-07-06 06:07:00,
2013-07-06 02:12:00,71.4,67.7,30.04,South,180,0.0,0.0,88,0.00,CLR,,0.00,WeatherDisplay:10.37,2013-07-06 06:12:00,
2013-07-06 02:17:00,71.4,67.7,30.03,SSW,202,2.9,2.9,88,0.00,CLR,,0.00,WeatherDisplay:10.37,2013-07-06 06:17:00,
2013-07-06 02:22:00,71.4,67.7,30.03,West,270,0.5,0.0,88,0.00,CLR,,0.00,WeatherDisplay:10.37,2013-07-06 06:22:00,
2013-07-06 02:27:00,71.2,67.5,30.04,SSW,202,0.5,0.5,88,0.00,CLR,,0.00,WeatherDisplay:10.37,2013-07-06 06:27:00,
2013-07-06 02:32:00,71.2,67.5,30.04,SW,225,0.2,0.2,88,0.00,CLR,,0.00,WeatherDisplay:10.37,2013-07-06 06:32:00,
2013-07-06 02:37:00,71.2,67.5,30.04,SW,225,1.1,1.1,88,0.00,CLR,,0.00,WeatherDisplay:10.37,2013-07-06 06:37:00,
2013-07-06 02:42:00,71.2,67.5,30.04,WSW,248,0.7,1.1,88,0.00,CLR,,0.00,WeatherDisplay:10.37,2013-07-06 06:42:00,
2013-07-06 02:47:00,71.2,67.5,30.03,SW,225,0.7,1.1,88,0.00,CLR,,0.00,WeatherDisplay:10.37,2013-07-06 06:47:00,
2013-07-06 02:52:00,71.1,67.3,30.03,WSW,248,0.0,3.5,88,0.00,CLR,,0.00,WeatherDisplay:10.37,2013-07-06 06:52:00,
2013-07-06 02:57:00,71.1,67.3,30.03,SW,225,0.0,1.1,88,0.00,CLR,,0.00,WeatherDisplay:10.37,2013-07-06 06:57:00,
2013-07-06 03:02:00,71.1,67.3,30.03,SSW,202,1.1,1.1,88,0.00,CLR,,0.00,WeatherDisplay:10.37,2013-07-06 07:02:00,
2013-07-06 03:07:00,71.1,67.3,30.03,SW,225,0.5,0.5,88,0.00,CLR,,0.00,WeatherDisplay:10.37,2013-07-06 07:07:00,
2013-07-06 03:12:00,71.1,67.3,30.03,SW,225,0.9,1.1,88,0.00,CLR,,0.00,WeatherDisplay:10.37,2013-07-06 07:12:00,
2013-07-06 03:17:00,71.1,67.7,30.03,WNW,292,0.5,2.3,89,0.00,CLR,,0.00,WeatherDisplay:10.37,2013-07-06 07:17:00,
2013-07-06 03:22:00,71.1,67.3,30.03,SW,225,0.5,1.1,88,0.00,CLR,,0.00,WeatherDisplay:10.37,2013-07-06 07:22:00,
2013-07-06 03:27:00,71.1,67.3,30.03,SSW,202,1.1,1.1,88,0.00,CLR,,0.00,WeatherDisplay:10.37,2013-07-06 07:27:00,
2013-07-06 03:32:00,71.1,67.7,30.03,WNW,292,2.0,2.3,89,0.00,CLR,,0.00,WeatherDisplay:10.37,2013-07-06 07:32:00,
2013-07-06 03:37:00,71.1,67.7,30.03,WSW,248,0.9,0.9,89,0.00,CLR,,0.00,WeatherDisplay:10.37,2013-07-06 07:37:00,
2013-07-06 03:42:00,71.1,67.7,30.03,SW,225,0.5,0.5,89,0.00,CLR,,0.00,WeatherDisplay:10.37,2013-07-06 07:42:00,
2013-07-06 03:47:00,70.9,67.5,30.03,SW,225,1.1,2.3,89,0.00,CLR,,0.00,WeatherDisplay:10.37,2013-07-06 07:47:00,
2013-07-06 03:52:00,70.9,67.5,30.03,SSW,202,0.5,1.1,89,0.00,CLR,,0.00,WeatherDisplay:10.37,2013-07-06 07:52:00,
2013-07-06 03:57:00,70.9,67.5,30.03,SSW,202,1.4,1.4,89,0.00,CLR,,0.00,WeatherDisplay:10.37,2013-07-06 07:57:00,
2013-07-06 04:02:00,70.9,67.5,30.03,WSW,248,0.9,1.1,89,0.00,CLR,,0.00,WeatherDisplay:10.37,2013-07-06 08:02:00,
2013-07-06 04:07:00,70.9,67.5,30.03,SW,225,0.9,1.1,89,0.00,CLR,,0.00,WeatherDisplay:10.37,2013-07-06 08:07:00,
2013-07-06 04:12:00,70.9,67.5,30.03,SSW,202,0.7,1.1,89,0.00,CLR,,0.00,WeatherDisplay:10.37,2013-07-06 08:12:00,
2013-07-06 04:17:00,70.9,67.5,30.03,SW,225,2.2,2.3,89,0.00,CLR,,0.00,WeatherDisplay:10.37,2013-07-06 08:17:00,
2013-07-06 04:22:00,70.7,67.6,30.03,SW,225,2.0,2.3,90,0.00,CLR,,0.00,WeatherDisplay:10.37,2013-07-06 08:22:00,
2013-07-06 04:27:00,70.7,67.6,30.03,SW,225,0.0,0.0,90,0.00,CLR,,0.00,WeatherDisplay:10.37,2013-07-06 08:27:00,
2013-07-06 04:32:00,70.5,67.4,30.03,SSW,202,0.0,0.0,90,0.00,CLR,,0.00,WeatherDisplay:10.37,2013-07-06 08:32:00,
2013-07-06 04:37:00,70.5,67.4,30.03,SSW,202,0.9,1.1,90,0.00,CLR,,0.00,WeatherDisplay:10.37,2013-07-06 08:37:00,
2013-07-06 04:42:00,70.5,67.4,30.03,SSW,202,0.7,1.1,90,0.00,CLR,,0.00,WeatherDisplay:10.37,2013-07-06 08:42:00,
2013-07-06 04:47:00,70.5,67.4,30.03,SSW,202,1.1,1.1,90,0.00,CLR,,0.00,WeatherDisplay:10.37,2013-07-06 08:47:00,
2013-07-06 04:52:00,70.7,67.6,30.03,SW,225,1.1,2.3,90,0.00,CLR,,0.00,WeatherDisplay:10.37,2013-07-06 08:52:00,
2013-07-06 04:57:00,70.7,67.6,30.03,SW,225,1.4,1.4,90,0.00,CLR,,0.00,WeatherDisplay:10.37,2013-07-06 08:57:00,
2013-07-06 05:02:00,70.7,67.6,30.03,WSW,248,0.0,1.1,90,0.00,CLR,,0.00,WeatherDisplay:10.37,2013-07-06 09:02:00,
2013-07-06 05:07:00,70.7,67.6,30.03,SSW,202,1.4,2.3,90,0.00,CLR,,0.00,WeatherDisplay:10.37,2013-07-06 09:07:00,
2013-07-06 05:12:00,70.7,67.6,30.03,SW,225,1.1,1.1,90,0.00,CLR,,0.00,WeatherDisplay:10.37,2013-07-06 09:12:00,
2013-07-06 05:17:00,70.9,67.8,30.03,SW,225,2.4,2.4,90,0.00,CLR,,0.00,WeatherDisplay:10.37,2013-07-06 09:17:00,
2013-07-06 05:22:00,70.9,67.8,30.02,SSW,202,1.6,1.6,90,0.00,CLR,,0.00,WeatherDisplay:10.37,2013-07-06 09:22:00,
2013-07-06 05:27:00,70.9,67.8,30.03,SW,225,1.4,1.4,90,0.00,CLR,,0.00,WeatherDisplay:10.37,2013-07-06 09:27:00,
2013-07-06 05:32:00,70.9,67.8,30.03,SSW,202,0.7,1.1,90,0.00,CLR,,0.00,WeatherDisplay:10.37,2013-07-06 09:32:00,
2013-07-06 05:37:00,70.9,67.8,30.03,SW,225,0.5,0.5,90,0.00,CLR,,0.00,WeatherDisplay:10.37,2013-07-06 09:37:00,
2013-07-06 05:42:00,70.9,67.8,30.03,SW,225,0.5,0.5,90,0.00,CLR,,0.00,WeatherDisplay:10.37,2013-07-06 09:42:00,
2013-07-06 05:47:00,71.1,68.0,30.03,WSW,248,0.0,0.0,90,0.00,CLR,,0.00,WeatherDisplay:10.37,2013-07-06 09:47:00,
2013-07-06 05:52:00,71.2,68.2,30.03,SW,225,1.8,1.8,90,0.00,CLR,,0.00,WeatherDisplay:10.37,2013-07-06 09:52:00,
2013-07-06 05:57:00,71.2,68.2,30.03,South,180,0.7,1.1,90,0.00,CLR,,0.00,WeatherDisplay:10.37,2013-07-06 09:57:00,
2013-07-06 06:02:00,71.4,68.7,30.03,SW,225,0.2,1.1,91,0.00,CLR,,0.00,WeatherDisplay:10.37,2013-07-06 10:02:00,
2013-07-06 06:07:00,71.6,68.8,30.03,WSW,248,0.5,2.3,91,0.00,CLR,,0.00,WeatherDisplay:10.37,2013-07-06 10:07:00,
2013-07-06 06:12:00,71.8,69.0,30.03,WSW,248,2.2,4.6,91,0.00,CLR,,0.00,WeatherDisplay:10.37,2013-07-06 10:12:00,
2013-07-06 06:17:00,72.0,69.2,30.03,West,270,0.7,1.1,91,0.00,CLR,,0.00,WeatherDisplay:10.37,2013-07-06 10:17:00,
2013-07-06 06:22:00,72.3,69.2,30.03,SSW,202,1.1,1.1,90,0.00,CLR,,0.00,WeatherDisplay:10.37,2013-07-06 10:22:00,
2013-07-06 06:27:00,72.5,69.4,30.03,NNW,338,0.0,0.0,90,0.00,CLR,,0.00,WeatherDisplay:10.37,2013-07-06 10:27:00,
2013-07-06 06:32:00,72.9,69.8,30.03,WSW,248,0.5,2.3,90,0.00,CLR,,0.00,WeatherDisplay:10.37,2013-07-06 10:32:00,
2013-07-06 06:37:00,73.0,69.9,30.03,WSW,248,1.1,1.1,90,0.00,CLR,,0.00,WeatherDisplay:10.37,2013-07-06 10:37:00,
2013-07-06 06:42:00,73.4,70.3,30.03,SW,225,1.1,1.1,90,0.00,CLR,,0.00,WeatherDisplay:10.37,2013-07-06 10:42:00,
2013-07-06 06:47:00,73.8,70.6,30.03,SW,225,0.5,1.1,90,0.00,CLR,,0.00,WeatherDisplay:10.37,2013-07-06 10:47:00,
2013-07-06 06:52:00,73.9,70.8,30.03,WNW,292,0.0,1.1,90,0.00,CLR,,0.00,WeatherDisplay:10.37,2013-07-06 10:52:00,
2013-07-06 06:57:00,74.3,70.8,30.03,SW,225,0.2,2.3,89,0.00,CLR,,0.00,WeatherDisplay:10.37,2013-07-06 10:57:00,
2013-07-06 07:02:00,74.5,71.0,30.03,WSW,248,0.7,1.1,89,0.00,CLR,,0.00,WeatherDisplay:10.37,2013-07-06 11:02:00,
2013-07-06 07:07:00,74.8,71.4,30.03,SSW,202,0.5,0.5,89,0.00,CLR,,0.00,WeatherDisplay:10.37,2013-07-06 11:07:00,
2013-07-06 07:12:00,75.0,71.6,30.03,SSW,202,0.9,1.1,89,0.00,CLR,,0.00,WeatherDisplay:10.37,2013-07-06 11:12:00,
2013-07-06 07:17:00,75.2,71.4,30.03,WSW,248,1.8,2.3,88,0.00,CLR,,0.00,WeatherDisplay:10.37,2013-07-06 11:17:00,
2013-07-06 07:22:00,75.6,71.8,30.03,SW,225,4.0,4.6,88,0.00,CLR,,0.00,WeatherDisplay:10.37,2013-07-06 11:22:00,
2013-07-06 07:27:00,75.9,71.8,30.03,SW,225,0.7,1.1,87,0.00,CLR,,0.00,WeatherDisplay:10.37,2013-07-06 11:27:00,
2013-07-06 07:32:00,76.1,71.9,30.03,WSW,248,0.7,1.1,87,0.00,CLR,,0.00,WeatherDisplay:10.37,2013-07-06 11:32:00,
2013-07-06 07:37:00,76.6,72.1,30.03,SW,225,1.4,1.4,86,0.00,CLR,,0.00,WeatherDisplay:10.37,2013-07-06 11:37:00,
2013-07-06 07:42:00,77.0,72.5,30.03,NW,315,0.5,1.1,86,0.00,CLR,,0.00,WeatherDisplay:10.37,2013-07-06 11:42:00,
2013-07-06 07:47:00,77.4,72.5,30.03,West,270,0.7,2.3,85,0.00,CLR,,0.00,WeatherDisplay:10.37,2013-07-06 11:47:00,
2013-07-06 07:52:00,77.7,72.8,30.03,East,90,1.1,0.0,85,0.00,CLR,,0.00,WeatherDisplay:10.37,2013-07-06 11:52:00,
2013-07-06 07:57:00,78.3,73.4,30.03,SW,225,1.4,2.3,85,0.00,CLR,,0.00,WeatherDisplay:10.37,2013-07-06 11:57:00,
2013-07-06 08:02:00,78.8,73.6,30.03,SW,225,0.9,2.3,84,0.00,CLR,,0.00,WeatherDisplay:10.37,2013-07-06 12:02:00,
2013-07-06 08:07:00,79.2,73.5,30.03,SSW,202,3.1,3.5,83,0.00,CLR,,0.00,WeatherDisplay:10.37,2013-07-06 12:07:00,
2013-07-06 08:12:00,79.5,73.5,30.03,South,180,0.7,1.1,82,0.00,CLR,,0.00,WeatherDisplay:10.37,2013-07-06 12:12:00,
2013-07-06 08:17:00,79.9,74.3,30.03,WSW,248,0.7,1.1,83,0.00,CLR,,0.00,WeatherDisplay:10.37,2013-07-06 12:17:00,
2013-07-06 08:22:00,79.9,73.5,30.03,WSW,248,0.7,1.1,81,0.00,CLR,,0.00,WeatherDisplay:10.37,2013-07-06 12:22:00,
2013-07-06 08:27:00,80.2,73.9,30.03,WSW,248,3.3,3.3,81,0.00,CLR,,0.00,WeatherDisplay:10.37,2013-07-06 12:27:00,
2013-07-06 08:32:00,80.6,74.2,30.03,SW,225,1.8,3.5,81,0.00,CLR,,0.00,WeatherDisplay:10.37,2013-07-06 12:32:00,
2013-07-06 08:37:00,81.0,74.6,30.03,WSW,248,0.5,2.3,81,0.00,CLR,,0.00,WeatherDisplay:10.37,2013-07-06 12:37:00,
2013-07-06 08:42:00,81.3,74.6,30.02,South,180,0.0,1.1,80,0.00,CLR,,0.00,WeatherDisplay:10.37,2013-07-06 12:42:00,
2013-07-06 08:47:00,81.7,75.3,30.03,NW,315,0.9,2.3,81,0.00,CLR,,0.00,WeatherDisplay:10.37,2013-07-06 12:47:00,
2013-07-06 08:52:00,82.2,75.4,30.03,WSW,248,1.6,2.3,80,0.00,CLR,,0.00,WeatherDisplay:10.37,2013-07-06 12:52:00,
2013-07-06 08:57:00,82.6,75.4,30.03,SSW,202,1.8,3.5,79,0.00,CLR,,0.00,WeatherDisplay:10.37,2013-07-06 12:57:00,
2013-07-06 09:02:00,83.1,75.9,30.02,SSW,202,0.7,4.6,79,0.00,CLR,,0.00,WeatherDisplay:10.37,2013-07-06 13:02:00,
2013-07-06 09:07:00,83.5,75.9,30.02,SW,225,2.0,2.3,78,0.00,CLR,,0.00,WeatherDisplay:10.37,2013-07-06 13:07:00,
2013-07-06 09:12:00,83.7,75.7,30.02,ENE,68,0.5,3.5,77,0.00,CLR,,0.00,WeatherDisplay:10.37,2013-07-06 13:12:00,
2013-07-06 09:17:00,83.7,75.7,30.01,SW,225,2.4,2.4,77,0.00,CLR,,0.00,WeatherDisplay:10.37,2013-07-06 13:17:00,
2013-07-06 09:22:00,84.2,76.6,30.02,SSW,202,1.1,2.3,78,0.00,CLR,,0.00,WeatherDisplay:10.37,2013-07-06 13:22:00,
2013-07-06 09:27:00,84.6,76.6,30.01,SSW,202,0.2,2.3,77,0.00,CLR,,0.00,WeatherDisplay:10.37,2013-07-06 13:27:00,
2013-07-06 09:32:00,84.9,76.9,30.01,NW,315,0.5,2.3,77,0.00,CLR,,0.00,WeatherDisplay:10.37,2013-07-06 13:32:00,
2013-07-06 09:37:00,85.3,76.9,30.01,WNW,292,0.5,2.3,76,0.00,CLR,,0.00,WeatherDisplay:10.37,2013-07-06 13:37:00,
2013-07-06 09:42:00,85.8,77.4,30.01,SW,225,0.7,2.3,76,0.00,CLR,,0.00,WeatherDisplay:10.37,2013-07-06 13:42:00,
2013-07-06 09:47:00,86.2,77.3,30.01,NNW,338,2.2,2.3,75,0.00,CLR,,0.00,WeatherDisplay:10.37,2013-07-06 13:47:00,
2013-07-06 09:52:00,86.7,77.8,30.01,SSW,202,2.4,3.5,75,0.00,CLR,,0.00,WeatherDisplay:10.37,2013-07-06 13:52:00,
2013-07-06 09:53:00,86.7,77.4,30.01,West,270,1.1,3.5,74,0.00,CLR,,0.00,WeatherDisplay:10.37,2013-07-06 13:53:00,
2013-07-06 09:58:00,86.9,77.6,30.00,SW,225,0.7,2.3,74,0.00,CLR,,0.00,WeatherDisplay:10.37,2013-07-06 13:58:00,
2013-07-06 10:03:00,87.1,77.0,30.01,SSW,202,2.0,4.6,72,0.00,CLR,,0.00,WeatherDisplay:10.37,2013-07-06 14:03:00,
2013-07-06 10:08:00,87.1,77.0,30.00,SSW,202,0.5,3.5,72,0.00,CLR,,0.00,WeatherDisplay:10.37,2013-07-06 14:08:00,
2013-07-06 10:13:00,87.3,77.1,30.00,SSW,202,0.5,1.1,72,0.00,CLR,,0.00,WeatherDisplay:10.37,2013-07-06 14:13:00,
2013-07-06 10:18:00,87.6,77.5,30.00,SSW,202,0.7,1.1,72,0.00,CLR,,0.00,WeatherDisplay:10.37,2013-07-06 14:18:00,
2013-07-06 10:23:00,88.2,78.4,30.00,West,270,0.2,0.2,73,0.00,CLR,,0.00,WeatherDisplay:10.37,2013-07-06 14:23:00,
2013-07-06 10:28:00,88.3,78.2,30.00,NW,315,2.9,2.9,72,0.00,CLR,,0.00,WeatherDisplay:10.37,2013-07-06 14:28:00,
2013-07-06 10:33:00,88.5,77.0,30.00,SW,225,2.6,4.6,69,0.00,CLR,,0.00,WeatherDisplay:10.37,2013-07-06 14:33:00,
2013-07-06 10:38:00,88.7,78.1,30.00,NNW,338,0.5,0.5,71,0.00,CLR,,0.00,WeatherDisplay:10.37,2013-07-06 14:38:00,
2013-07-06 10:43:00,88.9,77.4,30.00,NNE,22,0.9,1.1,69,0.00,CLR,,0.00,WeatherDisplay:10.37,2013-07-06 14:43:00,
2013-07-06 10:48:00,89.2,78.2,30.00,SSE,158,0.5,1.1,70,0.00,CLR,,0.00,WeatherDisplay:10.37,2013-07-06 14:48:00,
2013-07-06 10:53:00,89.6,78.9,30.00,NW,315,1.1,1.1,71,0.00,CLR,,0.00,WeatherDisplay:10.37,2013-07-06 14:53:00,
2013-07-06 10:58:00,89.6,77.6,30.00,WNW,292,0.7,1.1,68,0.00,CLR,,0.00,WeatherDisplay:10.37,2013-07-06 14:58:00,
2013-07-06 11:03:00,90.0,78.4,30.00,NE,45,1.1,1.1,69,0.00,CLR,,0.00,WeatherDisplay:10.37,2013-07-06 15:03:00,
2013-07-06 11:08:00,90.3,77.9,30.00,NW,315,0.5,1.1,67,0.00,CLR,,0.00,WeatherDisplay:10.37,2013-07-06 15:08:00,
2013-07-06 11:13:00,90.5,78.9,29.99,WSW,248,1.6,2.3,69,0.00,CLR,,0.00,WeatherDisplay:10.37,2013-07-06 15:13:00,
2013-07-06 11:18:00,91.0,79.4,30.00,ESE,112,0.7,1.1,69,0.00,CLR,,0.00,WeatherDisplay:10.37,2013-07-06 15:18:00,
2013-07-06 11:23:00,91.2,79.2,29.99,South,180,2.4,4.6,68,0.00,CLR,,0.00,WeatherDisplay:10.37,2013-07-06 15:23:00,
2013-07-06 11:28:00,91.4,78.9,29.99,SSW,202,1.1,1.1,67,0.00,CLR,,0.00,WeatherDisplay:10.37,2013-07-06 15:28:00,
2013-07-06 11:33:00,91.4,78.9,29.99,SSW,202,0.5,2.3,67,0.00,CLR,,0.00,WeatherDisplay:10.37,2013-07-06 15:33:00,
2013-07-06 11:38:00,91.4,78.4,29.99,SW,225,3.3,4.6,66,0.00,CLR,,0.00,WeatherDisplay:10.37,2013-07-06 15:38:00,
2013-07-06 11:43:00,91.2,78.7,30.00,SSW,202,4.5,4.6,67,0.00,CLR,,0.00,WeatherDisplay:10.37,2013-07-06 15:43:00,
2013-07-06 11:48:00,91.4,78.9,29.99,SW,225,6.2,6.2,67,0.00,CLR,,0.00,WeatherDisplay:10.37,2013-07-06 15:48:00,
2013-07-06 11:53:00,91.8,79.2,29.99,SSW,202,1.1,1.1,67,0.00,CLR,,0.00,WeatherDisplay:10.37,2013-07-06 15:53:00,
2013-07-06 11:58:00,91.6,78.1,29.99,SSW,202,3.8,5.9,65,0.00,CLR,,0.00,WeatherDisplay:10.37,2013-07-06 15:58:00,
2013-07-06 12:03:00,91.4,78.4,29.99,SW,225,2.0,2.4,66,0.00,CLR,,0.00,WeatherDisplay:10.37,2013-07-06 16:03:00,
2013-07-06 12:08:00,91.4,78.4,29.99,SW,225,4.5,4.5,66,0.00,CLR,,0.00,WeatherDisplay:10.37,2013-07-06 16:08:00,
2013-07-06 12:14:00,91.6,79.1,29.98,WSW,248,2.0,5.8,67,0.00,CLR,,0.00,WeatherDisplay:10.37,2013-07-06 16:14:00,
2013-07-06 12:19:00,91.8,78.8,29.98,South,180,3.8,6.9,66,0.00,CLR,,0.00,WeatherDisplay:10.37,2013-07-06 16:19:00,
2013-07-06 12:24:00,91.8,78.8,29.98,SW,225,1.6,4.6,66,0.00,CLR,,0.00,WeatherDisplay:10.37,2013-07-06 16:24:00,
2013-07-06 12:30:00,91.8,79.2,29.98,SSW,202,1.1,2.3,67,0.00,CLR,,0.00,WeatherDisplay:10.37,2013-07-06 16:30:00,
2013-07-06 12:35:00,91.8,78.8,29.98,South,180,2.9,4.6,66,0.00,CLR,,0.00,WeatherDisplay:10.37,2013-07-06 16:35:00,
2013-07-06 12:40:00,91.9,78.5,29.98,SE,135,1.8,3.5,65,0.00,CLR,,0.00,WeatherDisplay:10.37,2013-07-06 16:40:00,
2013-07-06 12:45:00,91.9,78.9,29.98,SSE,158,2.4,2.4,66,0.00,CLR,,0.00,WeatherDisplay:10.37,2013-07-06 16:45:00,
2013-07-06 12:51:00,91.8,79.2,29.98,SSE,158,1.8,6.9,67,0.00,CLR,,0.00,WeatherDisplay:10.37,2013-07-06 16:51:00,
2013-07-06 12:56:00,91.8,78.8,29.98,South,180,4.9,4.9,66,0.00,CLR,,0.00,WeatherDisplay:10.37,2013-07-06 16:56:00,
2013-07-06 13:02:00,92.3,79.8,29.98,NE,45,0.5,5.8,67,0.00,CLR,,0.00,WeatherDisplay:10.37,2013-07-06 17:02:00,
2013-07-06 13:07:00,92.7,79.2,29.98,SW,225,3.8,5.4,65,0.00,CLR,,0.00,WeatherDisplay:10.37,2013-07-06 17:07:00,
2013-07-06 13:13:00,92.8,79.3,29.97,SW,225,4.7,8.1,65,0.00,CLR,,0.00,WeatherDisplay:10.37,2013-07-06 17:13:00,
2013-07-06 13:19:00,93.2,79.7,29.98,SW,225,1.8,5.2,65,0.00,CLR,,0.00,WeatherDisplay:10.37,2013-07-06 17:19:00,
2013-07-06 13:24:00,93.6,79.5,29.97,SW,225,2.9,2.9,64,0.00,CLR,,0.00,WeatherDisplay:10.37,2013-07-06 17:24:00,
2013-07-06 13:29:00,93.7,79.2,29.97,SSW,202,3.3,5.8,63,0.00,CLR,,0.00,WeatherDisplay:10.37,2013-07-06 17:29:00,
2013-07-06 13:34:00,93.7,79.2,29.97,West,270,5.9,5.9,63,0.00,CLR,,0.00,WeatherDisplay:10.37,2013-07-06 17:34:00,
2013-07-06 13:41:00,93.7,79.7,29.97,SSW,202,1.8,3.5,64,0.00,CLR,,0.00,WeatherDisplay:10.37,2013-07-06 17:41:00,
2013-07-06 13:46:00,93.6,79.5,29.97,SW,225,1.8,3.5,64,0.00,CLR,,0.00,WeatherDisplay:10.37,2013-07-06 17:46:00,
2013-07-06 13:51:00,93.2,78.2,29.97,SSW,202,2.4,5.8,62,0.00,CLR,,0.00,WeatherDisplay:10.37,2013-07-06 17:51:00,
2013-07-06 13:57:00,92.8,78.9,29.97,SW,225,4.7,6.9,64,0.00,CLR,,0.00,WeatherDisplay:10.37,2013-07-06 17:57:00,
2013-07-06 14:02:00,92.5,79.0,29.97,SSW,202,4.0,9.2,65,0.00,CLR,,0.00,WeatherDisplay:10.37,2013-07-06 18:02:00,
2013-07-06 14:07:00,92.3,78.8,29.97,SSW,202,5.4,5.8,65,0.00,CLR,,0.00,WeatherDisplay:10.37,2013-07-06 18:07:00,
2013-07-06 14:13:00,92.1,79.1,29.97,SSW,202,5.2,5.2,66,0.00,CLR,,0.00,WeatherDisplay:10.37,2013-07-06 18:13:00,
2013-07-06 14:18:00,92.1,78.2,29.97,SSW,202,4.3,4.3,64,0.00,CLR,,0.00,WeatherDisplay:10.37,2013-07-06 18:18:00,
2013-07-06 14:24:00,92.3,78.4,29.96,SSW,202,1.6,5.8,64,0.00,CLR,,0.00,WeatherDisplay:10.37,2013-07-06 18:24:00,
2013-07-06 14:29:00,92.3,78.8,29.96,SSW,202,1.8,3.5,65,0.00,CLR,,0.00,WeatherDisplay:10.37,2013-07-06 18:29:00,
2013-07-06 14:34:00,92.5,78.5,29.96,SW,225,2.4,4.6,64,0.00,CLR,,0.00,WeatherDisplay:10.37,2013-07-06 18:34:00,
2013-07-06 14:41:00,92.5,79.0,29.96,SW,225,2.4,3.8,65,0.00,CLR,,0.00,WeatherDisplay:10.37,2013-07-06 18:41:00,
2013-07-06 14:46:00,92.5,79.0,29.96,North,0,3.6,4.6,65,0.00,CLR,,0.00,WeatherDisplay:10.37,2013-07-06 18:46:00,
2013-07-06 14:51:00,92.7,78.2,29.96,SSW,202,1.8,6.9,63,0.00,CLR,,0.00,WeatherDisplay:10.37,2013-07-06 18:51:00,
2013-07-06 14:57:00,92.7,78.2,29.96,WSW,248,3.3,5.4,63,0.00,CLR,,0.00,WeatherDisplay:10.37,2013-07-06 18:57:00,
2013-07-06 15:03:00,92.5,78.5,29.96,SW,225,2.6,8.1,64,0.00,CLR,,0.00,WeatherDisplay:10.37,2013-07-06 19:03:00,
2013-07-06 15:08:00,92.3,78.4,29.96,South,180,5.4,5.4,64,0.00,CLR,,0.00,WeatherDisplay:10.37,2013-07-06 19:08:00,
2013-07-06 15:13:00,92.5,78.5,29.96,WSW,248,4.0,4.6,64,0.00,CLR,,0.00,WeatherDisplay:10.37,2013-07-06 19:13:00,
2013-07-06 15:19:00,92.5,78.5,29.96,SSW,202,0.5,2.9,64,0.00,CLR,,0.00,WeatherDisplay:10.37,2013-07-06 19:19:00,
2013-07-06 15:24:00,92.5,78.0,29.96,West,270,2.0,4.6,63,0.00,CLR,,0.00,WeatherDisplay:10.37,2013-07-06 19:24:00,
2013-07-06 15:30:00,92.5,78.5,29.95,SSW,202,2.0,3.5,64,0.00,CLR,,0.00,WeatherDisplay:10.37,2013-07-06 19:30:00,
2013-07-06 15:36:00,92.5,78.5,29.96,South,180,0.7,2.3,64,0.00,CLR,,0.00,WeatherDisplay:10.37,2013-07-06 19:36:00,
2013-07-06 15:41:00,92.5,78.0,29.96,SSW,202,2.6,3.5,63,0.00,CLR,,0.00,WeatherDisplay:10.37,2013-07-06 19:41:00,
2013-07-06 15:46:00,92.7,77.7,29.95,SSE,158,1.4,2.4,62,0.00,CLR,,0.00,WeatherDisplay:10.37,2013-07-06 19:46:00,
2013-07-06 15:52:00,92.8,78.4,29.95,SSW,202,2.0,4.6,63,0.00,CLR,,0.00,WeatherDisplay:10.37,2013-07-06 19:52:00,
2013-07-06 15:57:00,92.8,78.4,29.95,South,180,5.4,6.9,63,0.00,CLR,,0.00,WeatherDisplay:10.37,2013-07-06 19:57:00,
2013-07-06 16:02:00,92.7,77.7,29.95,SW,225,3.8,5.8,62,0.00,CLR,,0.00,WeatherDisplay:10.37,2013-07-06 20:02:00,
2013-07-06 16:07:00,92.5,78.0,29.95,SSW,202,3.3,4.6,63,0.00,CLR,,0.00,WeatherDisplay:10.37,2013-07-06 20:07:00,
2013-07-06 16:13:00,92.5,78.0,29.95,SSW,202,1.1,2.9,63,0.00,CLR,,0.00,WeatherDisplay:10.37,2013-07-06 20:13:00,
2013-07-06 16:18:00,92.7,78.2,29.95,SSW,202,3.8,6.9,63,0.00,CLR,,0.00,WeatherDisplay:10.37,2013-07-06 20:18:00,
2013-07-06 16:23:00,92.8,78.4,29.95,SW,225,1.1,3.5,63,0.00,CLR,,0.00,WeatherDisplay:10.37,2013-07-06 20:23:00,
2013-07-06 16:28:00,93.4,78.9,29.95,SSE,158,1.4,3.5,63,0.00,CLR,,0.00,WeatherDisplay:10.37,2013-07-06 20:28:00,
2013-07-06 16:33:00,93.9,78.4,29.95,NW,315,1.8,5.8,61,0.00,CLR,,0.00,WeatherDisplay:10.37,2013-07-06 20:33:00,
2013-07-06 16:38:00,94.5,78.9,29.95,WNW,292,1.6,4.6,61,0.00,CLR,,0.00,WeatherDisplay:10.37,2013-07-06 20:38:00,
2013-07-06 16:44:00,95.4,77.7,29.94,West,270,1.8,1.8,57,0.00,CLR,,0.00,WeatherDisplay:10.37,2013-07-06 20:44:00,
2013-07-06 16:49:00,95.4,77.2,29.94,WSW,248,1.4,5.8,56,0.00,CLR,,0.00,WeatherDisplay:10.37,2013-07-06 20:49:00,
2013-07-06 16:55:00,94.3,76.7,29.94,NNW,338,1.1,5.8,57,0.00,CLR,,0.00,WeatherDisplay:10.37,2013-07-06 20:55:00,
2013-07-06 17:00:00,94.5,76.3,29.94,South,180,3.6,4.7,56,0.00,CLR,,0.00,WeatherDisplay:10.37,2013-07-06 21:00:00,
2013-07-06 17:05:00,93.0,75.5,29.94,WNW,292,1.8,5.9,57,0.00,CLR,,0.00,WeatherDisplay:10.37,2013-07-06 21:05:00,
2013-07-06 17:10:00,91.4,75.6,29.94,WSW,248,1.8,2.6,60,0.00,CLR,,0.00,WeatherDisplay:10.37,2013-07-06 21:10:00,
2013-07-06 17:16:00,90.5,75.7,29.94,WSW,248,3.3,4.6,62,0.00,CLR,,0.00,WeatherDisplay:10.37,2013-07-06 21:16:00,
2013-07-06 18:11:00,86.0,74.2,29.92,West,270,0.5,5.8,68,0.00,CLR,,0.00,WeatherDisplay:10.37,2013-07-06 22:11:00,
2013-07-06 18:16:00,86.0,74.6,29.92,West,270,0.5,1.1,69,0.00,CLR,,0.00,WeatherDisplay:10.37,2013-07-06 22:16:00,
2013-07-06 18:22:00,86.0,74.6,29.92,West,270,2.9,2.9,69,0.00,CLR,,0.00,WeatherDisplay:10.37,2013-07-06 22:22:00,
2013-07-06 18:27:00,86.0,74.6,29.92,SW,225,1.1,4.6,69,0.00,CLR,,0.00,WeatherDisplay:10.37,2013-07-06 22:27:00,
2013-07-06 18:33:00,86.0,74.6,29.92,SW,225,3.3,3.3,69,0.00,CLR,,0.00,WeatherDisplay:10.37,2013-07-06 22:33:00,
2013-07-06 18:38:00,86.0,74.6,29.92,SSW,202,1.1,1.1,69,0.00,CLR,,0.00,WeatherDisplay:10.37,2013-07-06 22:38:00,
2013-07-06 18:44:00,86.2,74.8,29.92,West,270,1.1,3.5,69,0.00,CLR,,0.00,WeatherDisplay:10.37,2013-07-06 22:44:00,
2013-07-06 18:49:00,85.8,74.9,29.93,South,180,2.0,3.5,70,0.00,CLR,,0.00,WeatherDisplay:10.37,2013-07-06 22:49:00,
2013-07-06 18:54:00,85.3,74.4,29.93,WSW,248,1.4,1.4,70,0.00,CLR,,0.00,WeatherDisplay:10.37,2013-07-06 22:54:00,
2013-07-06 19:00:00,84.6,74.1,29.92,SW,225,5.6,5.6,71,0.00,CLR,,0.00,WeatherDisplay:10.37,2013-07-06 23:00:00,
2013-07-06 19:05:00,84.2,73.8,29.92,WNW,292,1.8,1.8,71,0.00,CLR,,0.00,WeatherDisplay:10.37,2013-07-06 23:05:00,
2013-07-06 19:10:00,83.8,73.4,29.93,NW,315,1.1,2.3,71,0.00,CLR,,0.00,WeatherDisplay:10.37,2013-07-06 23:10:00,
2013-07-06 19:15:00,83.7,73.3,29.92,NW,315,3.3,3.3,71,0.00,CLR,,0.00,WeatherDisplay:10.37,2013-07-06 23:15:00,
2013-07-06 19:20:00,83.3,73.3,29.92,SW,225,0.5,1.1,72,0.00,CLR,,0.00,WeatherDisplay:10.37,2013-07-06 23:20:00,
2013-07-06 19:26:00,82.9,73.0,29.92,South,180,2.4,2.4,72,0.00,CLR,,0.00,WeatherDisplay:10.37,2013-07-06 23:26:00,
2013-07-06 19:31:00,82.6,72.6,29.92,SW,225,1.1,2.3,72,0.00,CLR,,0.00,WeatherDisplay:10.37,2013-07-06 23:31:00,
2013-07-06 19:36:00,82.4,72.9,29.92,WSW,248,0.9,1.1,73,0.00,CLR,,0.00,WeatherDisplay:10.37,2013-07-06 23:36:00,
2013-07-06 19:41:00,82.0,72.9,29.93,SW,225,2.2,3.5,74,0.00,CLR,,0.00,WeatherDisplay:10.37,2013-07-06 23:41:00,
2013-07-06 19:47:00,81.7,72.2,29.92,WSW,248,1.8,2.9,73,0.00,CLR,,0.00,WeatherDisplay:10.37,2013-07-06 23:47:00,
2013-07-06 19:53:00,81.5,72.0,29.93,SSW,202,1.4,2.3,73,0.00,CLR,,0.00,WeatherDisplay:10.37,2013-07-06 23:53:00,
2013-07-06 19:59:00,81.1,71.7,29.93,SSW,202,0.5,2.3,73,0.00,CLR,,0.00,WeatherDisplay:10.37,2013-07-06 23:59:00,
2013-07-06 20:04:00,81.0,71.5,29.93,SW,225,0.5,1.1,73,0.00,CLR,,0.00,WeatherDisplay:10.37,2013-07-07 00:04:00,
2013-07-06 20:09:00,80.6,71.5,29.93,WNW,292,0.2,2.3,74,0.00,CLR,,0.00,WeatherDisplay:10.37,2013-07-07 00:09:00,
2013-07-06 20:16:00,80.2,71.6,29.93,WNW,292,1.1,2.6,75,0.00,CLR,,0.00,WeatherDisplay:10.37,2013-07-07 00:16:00,
2013-07-06 20:21:00,79.9,71.2,29.93,SSW,202,0.5,1.1,75,0.00,CLR,,0.00,WeatherDisplay:10.37,2013-07-07 00:21:00,
2013-07-06 20:26:00,79.7,71.1,29.93,SW,225,0.9,1.1,75,0.00,CLR,,0.00,WeatherDisplay:10.37,2013-07-07 00:26:00,
2013-07-06 20:31:00,79.5,70.9,29.93,SW,225,0.5,1.1,75,0.00,CLR,,0.00,WeatherDisplay:10.37,2013-07-07 00:31:00,
2013-07-06 20:37:00,79.2,70.5,29.93,WSW,248,0.5,2.3,75,0.00,CLR,,0.00,WeatherDisplay:10.37,2013-07-07 00:37:00,
2013-07-06 20:43:00,78.8,71.0,29.93,SSW,202,1.1,1.4,77,0.00,CLR,,0.00,WeatherDisplay:10.37,2013-07-07 00:43:00,
2013-07-06 20:48:00,78.6,70.8,29.93,West,270,1.4,3.1,77,0.00,CLR,,0.00,WeatherDisplay:10.37,2013-07-07 00:48:00,
2013-07-06 20:54:00,78.4,70.6,29.93,West,270,0.0,0.2,77,0.00,CLR,,0.00,WeatherDisplay:10.37,2013-07-07 00:54:00,
2013-07-06 21:01:00,78.1,70.3,29.94,West,270,0.7,1.1,77,0.00,CLR,,0.00,WeatherDisplay:10.37,2013-07-07 01:01:00,
2013-07-06 21:06:00,77.9,70.1,29.94,SW,225,0.5,0.9,77,0.00,CLR,,0.00,WeatherDisplay:10.37,2013-07-07 01:06:00,
2013-07-06 21:12:00,77.7,70.3,29.94,SW,225,0.5,2.3,78,0.00,CLR,,0.00,WeatherDisplay:10.37,2013-07-07 01:12:00,
2013-07-06 21:17:00,77.5,70.1,29.94,SSW,202,0.0,1.1,78,0.00,CLR,,0.00,WeatherDisplay:10.37,2013-07-07 01:17:00,
2013-07-06 21:23:00,77.4,70.0,29.94,SW,225,0.2,1.1,78,0.00,CLR,,0.00,WeatherDisplay:10.37,2013-07-07 01:23:00,
2013-07-06 21:28:00,77.2,69.8,29.95,WSW,248,0.5,0.5,78,0.00,CLR,,0.00,WeatherDisplay:10.37,2013-07-07 01:28:00,
2013-07-06 21:34:00,77.0,70.0,29.95,SW,225,0.0,0.0,79,0.00,CLR,,0.00,WeatherDisplay:10.37,2013-07-07 01:34:00,
2013-07-06 21:39:00,76.8,69.8,29.95,SW,225,0.7,0.7,79,0.00,CLR,,0.00,WeatherDisplay:10.37,2013-07-07 01:39:00,
2013-07-06 21:44:00,76.6,69.6,29.95,WSW,248,0.0,2.3,79,0.00,CLR,,0.00,WeatherDisplay:10.37,2013-07-07 01:44:00,
2013-07-06 21:50:00,76.5,69.8,29.95,WNW,292,0.5,1.1,80,0.00,CLR,,0.00,WeatherDisplay:10.37,2013-07-07 01:50:00,
2013-07-06 21:55:00,76.3,69.7,29.95,West,270,1.6,2.0,80,0.00,CLR,,0.00,WeatherDisplay:10.37,2013-07-07 01:55:00,
2013-07-06 22:01:00,76.1,69.5,29.95,NW,315,0.5,0.5,80,0.00,CLR,,0.00,WeatherDisplay:10.37,2013-07-07 02:01:00,
2013-07-06 22:06:00,75.9,69.3,29.95,West,270,0.5,2.3,80,0.00,CLR,,0.00,WeatherDisplay:10.37,2013-07-07 02:06:00,
2013-07-06 22:12:00,75.7,69.5,29.95,WSW,248,0.2,0.2,81,0.00,CLR,,0.00,WeatherDisplay:10.37,2013-07-07 02:12:00,
2013-07-06 22:17:00,75.7,69.5,29.95,SW,225,0.0,0.0,81,0.00,CLR,,0.00,WeatherDisplay:10.37,2013-07-07 02:17:00,
2013-07-06 22:22:00,75.6,69.3,29.95,WNW,292,0.0,0.0,81,0.00,CLR,,0.00,WeatherDisplay:10.37,2013-07-07 02:22:00,
2013-07-06 22:28:00,75.6,69.3,29.95,WSW,248,0.0,1.1,81,0.00,CLR,,0.00,WeatherDisplay:10.37,2013-07-07 02:28:00,
2013-07-06 22:34:00,75.4,69.1,29.95,WSW,248,0.0,1.1,81,0.00,CLR,,0.00,WeatherDisplay:10.37,2013-07-07 02:34:00,
2013-07-06 22:39:00,75.2,69.3,29.95,WSW,248,0.0,0.0,82,0.00,CLR,,0.00,WeatherDisplay:10.37,2013-07-07 02:39:00,
2013-07-06 22:45:00,75.2,69.3,29.95,WNW,292,0.0,0.0,82,0.00,CLR,,0.00,WeatherDisplay:10.37,2013-07-07 02:45:00,
2013-07-06 22:50:00,75.0,69.1,29.95,WNW,292,0.0,0.0,82,0.00,CLR,,0.00,WeatherDisplay:10.37,2013-07-07 02:50:00,
2013-07-06 22:55:00,74.8,69.0,29.95,WNW,292,0.0,0.0,82,0.00,CLR,,0.00,WeatherDisplay:10.37,2013-07-07 02:55:00,
2013-07-06 23:00:00,74.8,69.0,29.95,WNW,292,0.0,0.0,82,0.00,CLR,,0.00,WeatherDisplay:10.37,2013-07-07 03:00:00,
2013-07-06 23:05:00,74.7,69.2,29.95,WNW,292,0.0,0.0,83,0.00,CLR,,0.00,WeatherDisplay:10.37,2013-07-07 03:05:00,
2013-07-06 23:10:00,74.5,69.0,29.95,WNW,292,0.0,0.0,83,0.00,CLR,,0.00,WeatherDisplay:10.37,2013-07-07 03:10:00,
2013-07-06 23:18:00,74.3,68.8,29.95,West,270,0.5,0.5,83,0.00,CLR,,0.00,WeatherDisplay:10.37,2013-07-07 03:18:00,
2013-07-06 23:25:00,74.3,68.8,29.96,West,270,0.0,0.0,83,0.00,CLR,,0.00,WeatherDisplay:10.37,2013-07-07 03:25:00,
2013-07-06 23:30:00,74.1,68.6,29.96,West,270,0.0,0.0,83,0.00,CLR,,0.00,WeatherDisplay:10.37,2013-07-07 03:30:00,
2013-07-06 23:35:00,73.9,68.8,29.96,West,270,0.0,0.0,84,0.00,CLR,,0.00,WeatherDisplay:10.37,2013-07-07 03:35:00,
2013-07-06 23:40:00,73.8,68.6,29.96,West,270,0.0,0.0,84,0.00,CLR,,0.00,WeatherDisplay:10.37,2013-07-07 03:40:00,
2013-07-06 23:46:00,73.8,68.6,29.95,West,270,0.0,0.0,84,0.00,CLR,,0.00,WeatherDisplay:10.37,2013-07-07 03:46:00,
2013-07-06 23:51:00,73.6,68.8,29.96,West,270,0.0,0.0,85,0.00,CLR,,0.00,WeatherDisplay:10.37,2013-07-07 03:51:00,
2013-07-06 23:57:00,73.6,68.8,29.96,West,270,0.0,0.0,85,0.00,CLR,,0.00,WeatherDisplay:10.37,2013-07-07 03:57:00,